STARLINK-11647, 63191

Orbit data source: Space-Track

STARLINK-11647, 63191 is a payload satellite owned by SpaceX/Seattle (US) in LEO that was launched on Thu, 13 Mar 2025 UTC via an FALCON 9 launch vehicle from the Air Force Eastern Test Range (AFETR). Payload-class satellites include a variety of spacecraft equipped with specific instruments for various scientific and technological missions. These include communications satellites like Starlink; space stations such as the ISS; scientific satellites like the Hubble; Earth observation satellites from companies like Planet Labs, Umbra, and HawkEye 360; GPS; miniature CubeSats for education and research; and military/defense satellites.

Loading next visibility...
Identifier
63191, 2025-048J
Orbit
LEO
Country
Flag of USUS
Related business
Manufacturer
SpaceX/Seattle
Mission
Operational Commercial Communications
Bus & Motor
STARLINK V2MD, Unknown motor
Mass
960 kg wet, ~910 kg dry
Launch date (UTC)
2025-03-13 (1 year ago)
Launch vehicle
FALCON 9
Launch site
Air Force Eastern Test Range (AFETR)
Object type
Payload
Rocket body
Debris
Shape & HBR
Box + 2 Pan, 18.1 m
Radar Cross Section
36.964 m², Large (>1 m²)

Expand to show TLE details & history
Last TLE update: 22 hours ago

TLE from 22 hours ago
0 STARLINK-11647
1 63191U 25048J   26171.06470414  .00191506  00000-0  14555-2 0  9996
2 63191  42.9999  62.6731 0003950 255.4267 104.6162 15.70936946 74626
Epoch: 2026-06-20T01:33Z
TLE epoch observation values (Epoch: 2026-06-20T01:33:10.437Z)
Latitude
-0.00008°
Longitude
131.09484°
Altitude
356.661 km
Speed
7.697 km/s
True Right ascension
04h 10m 41s
True Declination
0° 00' 00"
Sunlit
Object was in daylight at epoch
Visualization orbit readout
Latitude
Unknown
Longitude
Unknown
Altitude
Unknown
Speed
Unknown
Apparent Right ascension
Unknown
Apparent Declination
Unknown
Sunlit
N/A
Visualization observer readout
Local Sidereal Time
10:18:01
Azimuth
Unknown
Elevation
Unknown
Doppler factor
Unknown
Orbital elements
Apogee altitude
360.861 km
Perigee altitude
355.539 km
Semi-major axis
6,736.337 km
Eccentricity
0.0004
Inclination
42.9999°
RAAN
62.6731°
Arg. of periapsis
255.4267°
True anomaly
104.65999°
Mean anomaly
104.6162°
Eccentric anomaly
104.6381°
Mean motion
3.92561 °/min
Orbital period
91.71 mins
BSTAR
0.0014555
Loading maneuver chart data...
Computing Atmospheric mass density...
Loading historical data...
Loading historical data...
Loading historical data...
Loading historical data...
Loading historical data...
Loading historical data...
Loading historical data...

Documentation

Showing up to 5 results
|